Location: Sobotiste
(48.7170°N, 17.4000°E)
Time: 06:58:39
(UTC+02:00)

METEOR M2 - Pass Details

Date: 18 March 2026
Orbit: 817 x 824 km, 98.5° (Epoch: 17 April)

Event Time Altitude Azimuth Distance (km) Brightness Sun altitude
Rises 04:36:48 0° 12° (NNE) 3,373 ? -14.1°
Reaches altitude 10° 04:39:10 10° 11° (N) 2,436 ? -13.7°
Maximum altitude 04:44:33 72° 288° (WNW) 869 ? -12.8°
Drops below altitude 10° 04:49:52 10° 205° (SSW) 2,417 ? -12.0°
Sets 04:52:13 0° 203° (SSW) 3,345 ? -11.6°
